Torna al catalogo

CZ-6A DEB

AttivoPO
NORAD 55232·DEBRIS·🇨🇳 China

Lanciato Nov 11, 2022 da Taiyuan Satellite Launch Center

Loading…

Prossimi Passaggi (prossime 24 ore)

TLE

AggiornatoSource: Space-Track

Epoca: Sep 14, 2026, 04:15 UTC

1 55232U 22151WZ  26257.17729764  .00006526  00000-0  92867-3 0  9997
2 55232  98.6209 338.0606 0072775 324.7875  34.8535 14.75408348198485

Traccia CZ-6A DEB in tempo reale con AllMySat

Download on the App Store